Regional Weather Roundup
Issued by NWS Wakefield, VA

Home | Current Version | Previous Version | Graphics & Text | Print | Product List | Glossary On
Versions: 1 2 3 4 5 6 7 8 9 10 11 12 13 14 15 16 17 18 19 20 21 22 23 24 25 26 27 28 29 30 31 32 33 34 35 36 37 38 39 40 41 42 43 44 45 46 47 48 49 50
000
ASUS41 KAKQ 042015
RWRAKQ

REGIONAL WEATHER ROUNDUP
NATIONAL WEATHER SERVICE WAKEFIELD VA
400 PM EDT WED MAY 04 2016

Note: "fair" indicates few or no clouds below 12,000 feet with no
significant weather and/or obstructions to visibility. * = Denotes
station may not report precipitation (e.g., rain,snow,etc.),
thunder or fog.

VAZ042-051-052>054-056-042100-
NORTHERN VIRGINIA

CITY           SKY/WX    TMP DP  RH WIND       PRES   REMARKS
WASH NATIONAL  CLOUDY    59  53  80 NE10      29.65F
DULLES         PTSUNNY   61  53  75 E8        29.64F
FORT BELVOIR   CLOUDY    61  53  75 VRB2      29.64F
QUANTICO       PTSUNNY   62  54  74 E7        29.64F
FREDERICKSBRG* PTSUNNY   63  59  89 E8        29.62F
STAFFORD*      PTSUNNY   64  55  74 E9        29.66F
WARRENTON      PTSUNNY   64  51  61 E7        29.62F
CULPEPER*      CLOUDY    65  54  67 CALM      29.64R
MANASSAS*      CLOUDY    63  55  77 E6        29.64F
LEESBURG*      CLOUDY    63  55  77 E7        29.64F
WINCHESTER     CLOUDY    63  52  67 SE7       29.62F THUNDER
FRONT ROYAL*   MOCLDY    63  54  72 E7        29.61F
LURAY*         MOCLDY    63  52  67 CALM      29.61F
$$

VAZ048-049-060>072-079>083-042100-
CENTRAL AND SOUTH CENTRAL VIRGINIA

CITY           SKY/WX    TMP DP  RH WIND       PRES   REMARKS
RICHMOND       PTSUNNY   67  56  67 NE6       29.61F
CHESTERFIELD*  CLOUDY    66  48  52 NE3       29.61F
PETERSBURG*    FAIR      71  56  60 SE5       29.60F
HANOVER        HVY RAIN  55  54  96 E3        29.64S FOG
TAPPAHANNOCK*  CLOUDY    62  57  84 N7        29.64F
QUINTON*       FAIR      67  57  70 SE3       29.61F
CHARLOTTSVILLE CLOUDY    65  52  62 E3        29.61F
GORDONSVILLE*  CLOUDY    62  55  78 N5        29.61F
ORANGE*        PTSUNNY   64  55  72 NE5       29.63F
LOUISA*        FAIR      70  61  73 SE7       29.60F
BUMPASS*       MOCLDY    64  60  87 E10       29.62F
FARMVILLE*     FAIR      73  44  36 SW8       29.58F
CREWE*         MOCLDY    71  50  47 CALM      29.60F
FORT PICKETT*  NOT AVBL
CHASE CITY*    FAIR      71  45  38 NW5       29.61F
CLARKSVILLE*   MOCLDY    72  50  46 W6        29.61F
SOUTH HILL*    PTSUNNY   69  51  53 SW3       29.66F
LAWRENCEVILLE* FAIR      71  58  64 CALM      29.59F
EMPORIA*       FAIR      70  55  60 CALM      29.60F
$$

VAZ088>098-042100-
SOUTHEAST VIRGINIA

CITY           SKY/WX    TMP DP  RH WIND       PRES   REMARKS
NORFOLK        CLOUDY    61  56  83 NE8       29.61F
VIRGINIA BEACH CLOUDY    66  56  70 N9        29.60F
NORFOLK NAVAL  CLOUDY    62  57  83 N8        29.63F
WEST POINT*    CLOUDY    62  58  86 N5        29.63F
SALUDA*        CLOUDY    60  58  92 NW6       29.63F
NEWPORT NEWS   CLOUDY    64  58  80 N3        29.61F
LANGLEY AFB    CLOUDY    62  58  87 NE6       29.61F
FORT EUSTIS    PTSUNNY   65  59  80 N3        29.60F
WILLIAMSBURG*  FAIR      66  61  82 CALM      29.62F
HR EXEC AP*    CLOUDY    64  57  77 N3        29.63F
FRANKLIN*      PTSUNNY   67  58  72 N6        29.61F
US460-WAKEFLD  FAIR      68  57  68 CALM      29.60F
$$

VAZ020-022-025-037-045-042100-
WEST CENTRAL AND SOUTHWEST VIRGINIA

CITY           SKY/WX    TMP DP  RH WIND       PRES   REMARKS
STAUNTON*      FAIR      67  42  41 NW6       29.63F
WAYNESBORO*    CLOUDY    64  42  45 SW7       29.62F
HOT SPRINGS VA PTSUNNY   54  40  60 W12       29.65F
LYNCHBURG      FAIR      68  42  38 SW12G18   29.62F
DANVILLE       CLOUDY    69  45  41 SW6       29.62F
SOUTH BOSTON*  FAIR      71  44  37 W3        29.61F
MARTINSVILLE   CLOUDY    64  43  45 SW3       29.66F
ROANOKE        PTSUNNY   67  44  43 NW9       29.65F
BLACKSBURG     CLOUDY    60  42  50 NW3       29.69F
DUBLIN*        CLOUDY    62  40  44 W6        29.68F
MARION*        CLOUDY    59  41  50 W5        29.70F
HILLSVILLE*    CLOUDY    56  40  56 W6        29.67F
RICHLANDS*     CLOUDY    57  28  33 SW6       29.69F
WISE*          CLOUDY    55  34  44 SW5       29.70F
ABINGDON*      CLOUDY    61  40  45 W12       29.69F
$$

MDZ021>025-VAZ099-100-042100-
SOUTHERN MARYLAND AND THE DELMARVA PENINSULA

CITY           SKY/WX    TMP DP  RH WIND       PRES   REMARKS
PATUXENT RIVER CLOUDY    57  52  83 N9        29.65F
BAY BRIDGE APT NOT AVBL
LEONARDTOWN    CLOUDY    55  52  88 N5        29.67F
DOVER          CLOUDY    54  54 100 N12       29.66F
GEORGETOWN     CLOUDY    53  50  89 N9        29.66F
EASTON         CLOUDY   N/A N/A N/A NE8       29.70F HAZE
CAMBRIDGE      CLOUDY    54  52  94 NE7       29.66S
SALISBURY      LGT RAIN  54  53  97 N9        29.64F FOG
OCEAN CITY     CLOUDY    52  50  93 N13       29.65F FOG
WALLOPS ISLAND CLOUDY    57  53  86 N12       29.64S
ACCOMACK*      CLOUDY   N/A N/A N/A N6        29.63F FOG
$$

NCZ012>017-030>032-042100-
NORTH CENTRAL AND EASTERN NORTH CAROLINA

CITY           SKY/WX    TMP DP  RH WIND       PRES   REMARKS
ROANOKE RAPIDS FAIR      72  57  60 CALM      29.59F
RALEIGH        PTSUNNY   74  52  46 VRB3      29.61F
ELIZABETH CITY PTSUNNY   72  61  68 NW8       29.59F
AHOSKIE*       MOSUNNY   68  59  72 CALM      29.60F
EDENTON*       CLOUDY    71  64  78 NW3       29.60F
CURRITUCK*     NOT AVBL
KILL DEVIL HLS SUNNY     70  58  67 NE6       29.59F
MANTEO         CLOUDY    67  64  88 NE8       29.60F
CAPE HATTERAS  MOSUNNY   72  65  78 SW8       29.59F
TARBORO*       MOCLDY    73  60  65 NW7       29.60F
GOLDSBORO      MOSUNNY   74  61  63 NW7       29.57F
WASHINGTON     MOSUNNY   76  60  59 W9        29.57F
GREENVILLE     MOSUNNY   73  61  64 W3        29.62F
NEW BERN       SUNNY     78  61  55 NW12      29.57F
WILMINGTON     PTSUNNY   80  60  50 W17       29.56F
$$

VAZ048-042100-
ELSEWHERE

CITY           SKY/WX    TMP DP  RH WIND       PRES   REMARKS
HARRISBURG PA  CLOUDY    56  49  77 E5        29.68S
BALTIMORE      DRIZZLE   55  51  86 E9        29.66F
ANNAPOLIS      CLOUDY    55  52  89 NE7       29.66F
ANDREWS AFB    CLOUDY    58  53  81 NE8       29.64F
PHILADELPHIA   CLOUDY    53  46  77 NE10G20   29.70F
HENDERSON NC   SUNNY     71  50  46 W6        29.61F
GREENSBORO     PTSUNNY   70  45  40 SW12      29.63F
ROCKY MOUNT    PTSUNNY   73  54  51 SW7       29.59F
$$

VAZ100-042100-
MARINE

STATION/POSITION TIME  TEMP    WIND        PRES    WAVE   SWELL
                       AIR SEA DIR/SP/G            HT/PER HT/PER
                 (UTC) (F)     (DEG/KT/KT) (MB)    (FT/S) (FT/S)
BRANDYWINE LGT   1900   51      30/ 17/ 19 1004.7F
CAPE MAY NJ      1900   52 57   40/  7/ 11 1004.4F
LEWES DE         1900   52 56   20/ 12/ 13 1004.6S
15NM E FENWICK I 1950   50 51              1002.8F   5/ 6
OCEAN-CITY-INLET 1900   51 56   30/  9/ 12 1003.4F
WACHAPREAGUE VA  1900   56 63   50/  6/  9 1003.2F
THOMAS POINT MD  2000   54 59   40/ 10/ 11 1005.6F
GOOSES REEF MD   2000   55 58   10/ 10/ 12 1005.4F   1/ 2
COVE POINT MD    1900   54      10/  8/ 11 1005.0F
SOLOMONS ISLAND  1900   56 62   20/  7/  9   N/A
BISHOPS HEAD MD  1900   56 61   10/  6/ 10 1003.7F
PINEY POINT MD   1900           20/  6/  7   N/A
POTOMAC MD       2000   56 60   20/ 10/ 14 1002.9F   1
CAMBRIDGE MD     1900   55 62   20/  6/  8 1003.8F
LEWISETTA VA     1900   57 63   50/  4/  8 1003.9F
RAPPAHANNOCK LGT 1900          330/ 11/ 11 1004.3F
STINGRAY PT      2000   58 62   30/ 12/ 16 1003.5F   1/ 2
YORK RVR RNG VA  1900   59      20/  6/  8 1002.9F
YORKTOWN VA      1900   60 63  310/  5/  7 1003.2F
JAMESTOWN VA     2000   63 68  290/  4/  6   N/A     0
DOMINION TERM VA 1900   60     310/  7/  9 1003.6F
KIPTOPEKE VA     1900      63  340/ 10/ 11   N/A
CHES BAY BRIDGE  1900   58 63  310/ 10/ 11 1003.0F
CAPE HENRY VA    1900   58     320/  8/ 10   N/A
CHESAPEAKE LGHT  1900   55      10/ 10/ 11 1004.0F
WILLOUBY STN VA  1900   60     140/  1/  2 1004.5F
CAPE HENRY BUOY  1912      57                N/A     4/ 7
CAPE CHARLES BUO 1926      58                N/A     3/ 7   3/ 7
OFFSHORE WE BUOY 1921      57                N/A     4/ 7   3/ 7
64NM E OF VA BCH 1950   55 56  360/  8/ 10 1002.4R   3/ 7   3/ 7
DUCK PIER NC     1900   58      10/  9/ 10 1002.0F
44100 DUCK FRF   1924      60                N/A     3/ 5
44056 DUCK FRF   1911      60                N/A     3/ 5
OREGON INLET NC  1900   63 63   10/  6/ 10 1002.3F
HATTERAS NC      1900   71 69  240/  6/ 10 1002.0F
DIAMOND SHLS NC  1950   70 71  230/  8/ 10 1001.9F   3/ 8   3/ 8
CAPE LOOKOUT NC  2000   69     170/ 10/ 11 1000.8F
$$



USA.gov is the U.S. government's official web portal to all federal, state and local government web resources and services.